Lake Ray Hubbard Weather Center

Moon Phase Calendar



Lake Ray Hubbard Water Level
Online Cameras

 


      

Current Conditions in Rockwall
6/26/2022 12:53:11 AM

86°F
Feels Like 87
Clear
Humidity
48%
Pressure
29.85"
Wind
4.6 mph (SSW)
Dew Point
64°F
UV Index
0/10 (Low)
Visibility
6 mi

Hourly Forecast

Date & Time Sun, Jun 26
12:00 AM
Sun, Jun 26
1:00 AM
Sun, Jun 26
2:00 AM
Sun, Jun 26
3:00 AM
Sun, Jun 26
4:00 AM
Sun, Jun 26
5:00 AM
Sun, Jun 26
6:00 AM
Sun, Jun 26
7:00 AM
Sun, Jun 26
8:00 AM
Sun, Jun 26
9:00 AM
Sun, Jun 26
10:00 AM
Sun, Jun 26
11:00 AM
Sun, Jun 26
12:00 PM
Sun, Jun 26
1:00 PM
Sun, Jun 26
2:00 PM
Sun, Jun 26
3:00 PM
Sun, Jun 26
4:00 PM
Sun, Jun 26
5:00 PM
Sun, Jun 26
6:00 PM
Sun, Jun 26
7:00 PM
Sun, Jun 26
8:00 PM
Sun, Jun 26
9:00 PM
Sun, Jun 26
10:00 PM
Sun, Jun 26
11:00 PM
Mon, Jun 27
12:00 AM
Mon, Jun 27
1:00 AM
Mon, Jun 27
2:00 AM
Mon, Jun 27
3:00 AM
Mon, Jun 27
4:00 AM
Mon, Jun 27
5:00 AM
Mon, Jun 27
6:00 AM
Mon, Jun 27
7:00 AM
Mon, Jun 27
8:00 AM
Mon, Jun 27
9:00 AM
Mon, Jun 27
10:00 AM
Mon, Jun 27
11:00 AM
Mon, Jun 27
12:00 PM
Mon, Jun 27
1:00 PM
Mon, Jun 27
2:00 PM
Mon, Jun 27
3:00 PM
Mon, Jun 27
4:00 PM
Mon, Jun 27
5:00 PM
Mon, Jun 27
6:00 PM
Mon, Jun 27
7:00 PM
Mon, Jun 27
8:00 PM
Mon, Jun 27
9:00 PM
Mon, Jun 27
10:00 PM
Mon, Jun 27
11:00 PM
Condition
Clear

Clear

Clear

Clear

Clear

Clear

Clear

Clear

Clear

Clear

Clear

Clear

Clear

Clear

Clear

Clear

Clouds

Clouds

Clouds

Clouds

Clouds

Clouds

Rain

Rain

Rain

Rain

Rain

Rain

Rain

Rain

Clouds

Clouds

Clouds

Clouds

Clouds

Clouds

Clouds

Clouds

Clouds

Clouds

Clouds

Clouds

Clouds

Clouds

Clouds

Clouds

Clouds

Clouds
Temperature 85°F86°F85°F84°F83°F82°F80°F80°F85°F90°F93°F96°F99°F101°F103°F104°F104°F101°F100°F99°F97°F88°F78°F72°F72°F72°F72°F71°F68°F67°F67°F67°F70°F74°F78°F81°F85°F89°F92°F94°F95°F95°F94°F92°F89°F85°F82°F80°F
Feels Like 86°F87°F85°F84°F83°F82°F80°F81°F84°F88°F91°F94°F97°F100°F103°F104°F104°F102°F100°F100°F98°F92°F79°F73°F73°F73°F73°F72°F69°F68°F67°F68°F71°F74°F78°F82°F86°F89°F92°F93°F95°F94°F94°F92°F89°F85°F83°F81°F
Cloudiness 0%0%1%1%2%3%4%4%5%5%5%5%5%5%0%0%14%34%44%40%29%39%40%48%50%59%96%96%97%98%97%93%97%97%95%95%90%88%95%97%98%98%98%99%100%82%55%42%
Visibility 6 mi6 mi6 mi6 mi6 mi6 mi6 mi6 mi6 mi6 mi6 mi6 mi6 mi6 mi6 mi6 mi6 mi6 mi6 mi6 mi6 mi6 mi6 mi6 mi6 mi6 mi6 mi6 mi6 mi6 mi6 mi6 mi6 mi6 mi6 mi6 mi6 mi6 mi6 mi6 mi6 mi6 mi6 mi6 mi6 mi6 mi6 mi6 mi
Precipitation 0%0%0%0%0%0%0%0%0%0%0%0%0%0%0%0%0%0%0%0%9%33%86%100%100%100%54%88%86%85%81%77%0%0%0%0%0%0%0%0%0%0%0%0%0%0%0%0%
Humidity 44%48%45%43%42%42%44%44%38%33%29%26%24%23%23%23%23%25%28%28%33%54%76%87%88%89%90%87%86%85%84%85%81%73%63%57%48%40%35%32%31%30%31%34%38%44%48%49%
Dew Point 61°F64°F61°F59°F58°F56°F56°F57°F57°F57°F56°F56°F56°F57°F58°F59°F59°F60°F60°F61°F63°F68°F69°F68°F68°F68°F68°F66°F64°F62°F62°F62°F64°F64°F64°F64°F63°F62°F60°F60°F59°F59°F59°F60°F60°F61°F61°F59°F
Pressure 29.88"29.85"29.88"29.91"29.91"29.94"30"30.03"30.06"30.06"30.06"30.06"30.06"30.03"30"29.97"29.97"29.94"29.94"29.94"29.97"30"30.09"30.12"30.15"30.12"30.12"30.15"30.15"30.15"30.18"30.18"30.18"30.21"30.21"30.18"30.15"30.15"30.12"30.09"30.06"30.06"30.06"30.03"30.06"30.06"30.09"30.09"
Wind Speed 9.3 mph9.3 mph10.6 mph10.4 mph10 mph9.2 mph7.6 mph6.6 mph8.6 mph10.5 mph10.9 mph10 mph9.4 mph9 mph9.7 mph11.8 mph14.3 mph16.2 mph14.2 mph13.7 mph16.3 mph24.6 mph25.5 mph14.4 mph7.5 mph6.2 mph9.7 mph12.4 mph11.8 mph11.3 mph9.8 mph11 mph13.7 mph14.6 mph12.6 mph11.6 mph10.1 mph9.6 mph9.7 mph10 mph10.4 mph11.4 mph13 mph13.9 mph13.6 mph12.1 mph10.9 mph10.2 mph
Wind
Direction
146°
SE
168°
SSE
183°
S
187°
S
202°
SSW
212°
SSW
223°
SW
235°
SW
252°
WSW
272°
W
292°
WNW
309°
NW
324°
NW
342°
NNW

N
17°
NNE
18°
NNE
17°
NNE
10°
N
357°
N

N

N
34°
NE
67°
ENE
38°
NE
356°
N
359°
N

N
10°
N
11°
N
17°
NNE
24°
NNE
38°
NE
54°
NE
64°
ENE
74°
ENE
78°
ENE
65°
ENE
54°
NE
49°
NE
47°
NE
46°
NE
47°
NE
45°
NE
40°
NE
37°
NE
51°
NE
69°
ENE

Daily Forecast

Date High Low Precip. Humidity
Today
Jun 26

Rain
104 °F
72 °F
100%
23%
Monday
Jun 27

Rain
95 °F
67 °F
100%
40%
Tuesday
Jun 28

Clouds
95 °F
69 °F
0%
21%
Wednesday
Jun 29

Rain
97 °F
71 °F
43%
36%
Thursday
Jun 30

Clear
103 °F
77 °F
17%
29%
Friday
Jul 1

Clear
103 °F
77 °F
18%
31%
Saturday
Jul 2

Rain
105 °F
79 °F
36%
28%
Sunday
Jul 3

Rain
101 °F
76 °F
39%
37%
Monday
Jul 4

Rain
101 °F
75 °F
90%
35%
Tuesday
Jul 5

Rain
104 °F
76 °F
84%
37%
Wednesday
Jul 6

Clear
108 °F
81 °F
0%
27%
Thursday
Jul 7

Rain
106 °F
81 °F
56%
32%
Friday
Jul 8

Rain
90 °F
76 °F
91%
86%
Saturday
Jul 9

Rain
82 °F
74 °F
100%
93%
Sunday
Jul 10

Clear
94 °F
71 °F
0%
33%
Monday
Jul 11

Clouds
93 °F
72 °F
0%
23%

Temperature 8-14 Day Outlook



Precipitation 8-14 Day Outlook




Quick Links
Lake Ray Hubbard News
Lake Ray Hubbard Photos
Lake Ray Hubbard Videos




About Us
Contact Us
Site Map
Search Site
Advertise With Us
   
RayHubbard.USLakes.info
THE LAKE RAY HUBBARD WEBSITE

Copyright 2022, Lakes Online
Privacy    |    Legal